Regional Weather Roundup
Issued by NWS

Home | Current Version | Previous Version | Graphics & Text | Print | Product List | Glossary Off
Versions: 1 2 3 4 5 6 7 8 9 10 11 12 13 14 15 16 17 18 19 20 21 22 23 24 25 26 27 28 29 30 31 32 33 34 35 36 37 38 39 40 41 42 43 44 45 46 47 48 49 50

000
ASUS43 KLSX 250107
RWRMO

WEATHER SUMMARY FOR MISSOURI
NATIONAL WEATHER SERVICE SPRINGFIELD MO
800 PM CDT TUE APR 24 2018

NOTE: "FAIR" INDICATES FEW OR NO CLOUDS BELOW 12,000 FEET WITH NO
       SIGNIFICANT WEATHER AND/OR OBSTRUCTIONS TO VISIBILITY.
       CURRENT SKY AND/OR WEATHER CONDITIONS ARE NOT AVAILABLE FOR
       CHILLICOTHE AND FARMINGTON.

MOZ001>031-035>038-043-044-053-054-250200-
...NORTHERN AND WESTERN MISSOURI...

CITY           SKY/WX    TMP DP  RH WIND       PRES   REMARKS
KANSAS CTY INT CLOUDY    65  43  44 NW18G31   30.10R
KANSAS C DTWN  CLOUDY    69  43  38 NW21G33   30.05R
LEE`S SUMMIT   PTCLDY    70  36  28 N6        30.06S
ST JOSEPH      CLOUDY    64  46  52 NW30G41   30.10R
CHILLICOTHE      N/A     70  37  29 CALM      30.04F
KIRKSVILLE     MOCLDY    66  34  30 NW6       30.04R

$$
MOZ066>068-077>081-088>096-101>105-250200-
...SOUTHWEST MISSOURI...

CITY           SKY/WX    TMP DP  RH WIND       PRES   REMARKS
SPRINGFIELD    CLEAR     66  38  35 N8        30.05R
JOPLIN         CLOUDY    70  37  29 NE6       30.06R
BRANSON        PTCLDY    68  39  34 NW6       30.06R

$$
MOZ032>034-039>042-045>050-055>058-069>072-250200-
...CENTRAL MISSOURI...

CITY           SKY/WX    TMP DP  RH WIND       PRES   REMARKS
COLUMBIA       PTCLDY    67  38  34 N7        30.02R
JEFFERSON CITY PTCLDY    72  39  30 NW5       30.01R
ROLLA          PTCLDY    64  48  56 CALM      30.03R
SEDALIA        CLEAR     68  37  32 N10       30.04R
WARRENSBURG    PTCLDY    68  34  28 N5        30.05R
OSAGE BEACH    PTCLDY    69  44  40 CALM      30.03S

$$
MOZ051-052-059>065-250200-
...EAST CENTRAL MISSOURI...

CITY           SKY/WX    TMP DP  RH WIND       PRES   REMARKS
ST LOUIS INTL  MOCLDY    67  48  50 CALM      29.98S
SPIRIT OF STL  PTCLDY    61  52  72 CALM      29.98R
ST CHARLES     PTCLDY    67  42  40 NW7       29.97R

$$
MOZ072>076-082>087-097>100-106>115-250200-
...SOUTH CENTRAL AND SOUTHEAST MISSOURI...

CITY           SKY/WX    TMP DP  RH WIND       PRES   REMARKS
CAPE GIRARDEAU MOCLDY    61  53  75 N3        30.00R
FARMINGTON       N/A     60  51  72 CALM      30.01S
POPLAR BLUFF   FAIR      64  54  69 N5        30.00R
WEST PLAINS    CLEAR     65  46  50 N6        30.04R

$$



USA.gov is the U.S. government's official web portal to all federal, state and local government web resources and services.